Weather History for Hilo, HI

Change the Weather History Date:

Friday, November 29, 2013

  Actual Average Record
Temperature  
Mean Temperature 74 °F 73 °F  
Max Temperature 82 °F 80 °F 88 °F (1978)
Min Temperature 66 °F 66 °F 62 °F (1950)
Degree Days  
Heating Degree Days 0 0  
Month to date heating degree days 0 0  
Since 1 July heating degree days 0 0  
Cooling Degree Days 9 8  
Month to date cooling degree days 309 263  
Year to date cooling degree days 3281 2998  
Growing Degree Days 22 (Base 50)    
Moisture  
Dew Point 68 °F    
Average Humidity 87    
Maximum Humidity 100    
Minimum Humidity 74    
Precipitation  
Precipitation 0.27 in 0.48 in 11.06 in (1992)
Month to date precipitation 6.66 15.05  
Year to date precipitation 81.98 114.70  
Snow  
Snow 0.00 in - - ()
Month to date snowfall 0.0  
Since 1 July snowfall 0.0  
Since 1 September snowfall 0.0  
Snow Depth 0.00 in    
Sea Level Pressure  
Sea Level Pressure 29.97 in    
Wind  
Wind Speed 7 mph (SSW)    
Max Wind Speed 20 mph    
Max Gust Speed 24 mph    
Visibility 8 miles    
Events Rain    
T = Trace of Precipitation, MM = Missing Value Source: NWS Daily Summary

Daily Weather History Graph

Daily Weather History Graph

Search for Another Location

Airport:

Trip Planner

Search our weather history database for the weather conditions in past years. The results will help you decide how hot, cold, wet, or windy it might be!

Date:

Astronomy

Nov. 29, 2013 Rise Set
Actual Time 6:37 AM HST 5:39 PM HST
Civil Twilight 6:13 AM HST 6:03 PM HST
Nautical Twilight 5:46 AM HST 6:30 PM HST
Astronomical Twilight 5:19 AM HST 6:57 PM HST
Moon 3:18 AM HST (11/29) 3:10 PM HST (11/29)
Length of Visible Light 11h 49m
Length of Day
11h 02m
Waning Crescent, 12% of the Moon is Illuminated
Nov 29
Waning Crescent
Dec 2
New
Dec 9
First Quarter
Dec 16
Full
Dec 25
Last Quarter

Hourly Weather History & Observations

Time (HST) Temp. Dew Point Humidity Pressure Visibility Wind Dir Wind Speed Gust Speed Precip Events Conditions
12:53 AM 66.0 °F 63.0 °F 90% 30.00 in 10.0 mi WSW 5.8 mph - N/A   Partly Cloudy
1:53 AM 68.0 °F 61.0 °F 78% 29.99 in 10.0 mi SSW 3.5 mph - N/A   Mostly Cloudy
2:53 AM 68.0 °F 62.1 °F 81% 29.97 in 10.0 mi WSW 5.8 mph - N/A   Overcast
3:53 AM 68.0 °F 66.9 °F 96% 29.97 in 10.0 mi WSW 8.1 mph - 0.00 in Rain Light Rain
4:53 AM 68.0 °F 66.0 °F 93% 29.96 in 10.0 mi SW 5.8 mph - 0.00 in   Overcast
5:16 AM 68.0 °F 66.0 °F 93% 29.97 in 5.0 mi South 3.5 mph - 0.00 in Rain Light Rain
5:24 AM 66.9 °F 66.0 °F 97% 29.97 in 9.0 mi SW 4.6 mph - 0.01 in Rain Light Rain
5:53 AM 68.0 °F 66.0 °F 93% 29.98 in 6.0 mi South 4.6 mph - 0.01 in Rain Light Rain
6:10 AM 66.9 °F 66.9 °F 100% 29.99 in 5.0 mi South 4.6 mph - 0.01 in Rain Light Rain
6:36 AM 66.9 °F 66.9 °F 100% 29.99 in 10.0 mi WSW 4.6 mph - 0.01 in   Overcast
6:53 AM 66.9 °F 66.9 °F 100% 29.99 in 10.0 mi West 5.8 mph - 0.01 in   Mostly Cloudy
7:14 AM 66.9 °F 66.9 °F 100% 30.00 in 1.8 mi SE 4.6 mph - 0.02 in Rain Heavy Rain
7:30 AM 68.0 °F 68.0 °F 100% 30.01 in 3.0 mi South 6.9 mph - 0.11 in Rain Light Rain
7:39 AM 69.1 °F 69.1 °F 100% 30.01 in 10.0 mi SSW 8.1 mph - 0.12 in   Overcast
7:53 AM 70.0 °F 69.1 °F 97% 30.01 in 10.0 mi SSW 9.2 mph - 0.12 in Rain Light Rain
8:53 AM 73.9 °F 70.0 °F 87% 30.01 in 10.0 mi SSW 6.9 mph - 0.00 in   Mostly Cloudy
9:53 AM 73.0 °F 70.0 °F 90% 30.02 in 9.0 mi SSW 9.2 mph - 0.00 in Rain Light Rain
10:53 AM 78.1 °F 72.0 °F 81% 30.00 in 10.0 mi South 8.1 mph - 0.00 in   Mostly Cloudy
11:53 AM 78.1 °F 69.1 °F 74% 29.98 in 10.0 mi South 11.5 mph 21.9 mph 0.00 in Rain Light Rain
12:53 PM 73.9 °F 71.1 °F 91% 29.95 in 2.5 mi South 9.2 mph 21.9 mph 0.00 in Rain Heavy Rain
1:06 PM 75.0 °F 72.0 °F 90% 29.94 in 10.0 mi South 6.9 mph - 0.05 in   Overcast
1:36 PM 77.0 °F 72.0 °F 84% 29.93 in 10.0 mi SSE 6.9 mph - 0.05 in Rain Light Rain
1:48 PM 77.0 °F 69.8 °F 78% 29.93 in 10.0 mi SSE 9.2 mph - 0.05 in Rain Light Rain
1:53 PM 77.0 °F 70.0 °F 79% 29.93 in 10.0 mi South 9.2 mph - 0.05 in Rain Light Rain
2:53 PM 73.9 °F 72.0 °F 93% 29.92 in 10.0 mi South 8.1 mph - 0.00 in   Overcast
3:21 PM 75.9 °F 72.0 °F 87% 29.93 in 2.0 mi SSE 16.1 mph 21.9 mph 0.00 in Rain Light Rain
3:26 PM 73.0 °F 71.1 °F 93% 29.93 in 3.0 mi South 8.1 mph 21.9 mph 0.03 in Rain Rain
3:53 PM 73.0 °F 71.1 °F 93% 29.93 in 10.0 mi South 9.2 mph - 0.06 in   Mostly Cloudy
4:53 PM 75.0 °F 71.1 °F 87% 29.93 in 10.0 mi SSE 9.2 mph - N/A   Overcast
5:27 PM 71.1 °F 70.0 °F 96% 29.95 in 2.0 mi South 13.8 mph 21.9 mph 0.00 in Rain Heavy Rain
5:32 PM 71.1 °F 70.0 °F 96% 29.95 in 3.0 mi South 10.4 mph 21.9 mph 0.02 in Rain Rain
5:53 PM 71.1 °F 68.0 °F 90% 29.95 in 10.0 mi SSW 8.1 mph - 0.02 in   Overcast
6:53 PM 72.0 °F 66.9 °F 84% 29.97 in 10.0 mi SSW 6.9 mph - N/A   Overcast
7:53 PM 72.0 °F 68.0 °F 87% 29.99 in 10.0 mi South 5.8 mph - N/A   Overcast
8:53 PM 71.1 °F 68.0 °F 90% 30.00 in 10.0 mi SSW 5.8 mph - N/A   Scattered Clouds
9:53 PM 71.1 °F 68.0 °F 90% 30.00 in 10.0 mi South 3.5 mph - N/A   Mostly Cloudy
10:53 PM 72.0 °F 68.0 °F 87% 30.00 in 10.0 mi SSW 5.8 mph - N/A   Clear
11:53 PM 71.1 °F 68.0 °F 90% 29.99 in 10.0 mi Calm Calm - N/A   Clear